Torna al catalogo

ARIANE 5 DEB

SYLDA

AttivoGTO
NORAD 28914·DEBRIS·🇫🇷 France

Lanciato Dec 21, 2005 da Guiana Space Centre

Loading…

TLE

ObsoletoSource: Space-Track

Epoca: Sep 14, 2026, 00:36 UTC

1 28914U 05049D   26257.02538987 -.00000005  00000-0  19644-2 0  9998
2 28914   4.4825 310.0946 7157506 351.7484 110.9776  2.23716289169293

Traccia ARIANE 5 DEB in tempo reale con AllMySat

Download on the App Store